Weather History for Alva, OK

Change the Weather History Date:

Saturday, December 7, 2013

  Actual Average Record
Temperature  
Mean Temperature 13 °F -  
Max Temperature 21 °F 49 °F 84 °F (2008)
Min Temperature 5 °F 25 °F 1 °F (1950)
Degree Days  
Heating Degree Days 52    
Moisture  
Dew Point 0 °F    
Average Humidity 54    
Maximum Humidity 72    
Minimum Humidity 39    
Precipitation  
Precipitation 0.00 in - - ()
Sea Level Pressure  
Sea Level Pressure 30.48 in    
Wind  
Wind Speed 8 mph (ENE)    
Max Wind Speed 13 mph    
Max Gust Speed 20 mph    
Visibility 10 miles    
Events      
Averages and records for this station are not official NWS values.
T = Trace of Precipitation, MM = Missing Value Source: NWS Daily Summary

Daily Weather History Graph

Daily Weather History Graph

Search for Another Location

Airport:

Trip Planner

Search our weather history database for the weather conditions in past years. The results will help you decide how hot, cold, wet, or windy it might be!

Date:

Astronomy

Dec. 07, 2013 Rise Set
Actual Time 7:34 AM CST 5:18 PM CST
Civil Twilight 7:05 AM CST 5:47 PM CST
Nautical Twilight 6:33 AM CST 6:19 PM CST
Astronomical Twilight 6:01 AM CST 6:50 PM CST
Moon 11:25 AM CST (12/7) 10:55 PM CST (12/7)
Length of Visible Light 10h 41m
Length of Day
9h 44m
Waxing Crescent, 29% of the Moon is Illuminated
Dec 7
Waxing Crescent
Dec 9
First Quarter
Dec 17
Full
Dec 25
Last Quarter
Jan 1
New

Hourly Weather History & Observations

Time (CST) Temp. Windchill Dew Point Humidity Pressure Visibility Wind Dir Wind Speed Gust Speed Precip Events Conditions
12:10 AM 8.6 °F -3.7 °F -2.2 °F 62% 30.61 in 10.0 mi North 8.1 mph - N/A   Clear
12:30 AM 8.6 °F -2.6 °F -2.2 °F 62% 30.61 in 10.0 mi North 6.9 mph - N/A   Clear
12:50 AM 8.6 °F -2.6 °F -2.2 °F 62% 30.62 in 10.0 mi North 6.9 mph - N/A   Clear
1:10 AM 8.6 °F 0.1 °F -2.2 °F 62% 30.63 in 10.0 mi NNW 4.6 mph - N/A   Clear
1:30 AM 6.8 °F -2.0 °F -2.2 °F 67% 30.63 in 10.0 mi NNW 4.6 mph - N/A   Clear
1:50 AM 6.8 °F -4.8 °F -2.2 °F 67% 30.62 in 10.0 mi North 6.9 mph - N/A   Clear
2:10 AM 8.6 °F -3.7 °F -2.2 °F 62% 30.62 in 10.0 mi North 8.1 mph - N/A   Clear
2:30 AM 6.8 °F -4.8 °F -2.2 °F 67% 30.62 in 10.0 mi North 6.9 mph - N/A   Clear
2:50 AM 6.8 °F -5.9 °F -2.2 °F 67% 30.63 in 10.0 mi North 8.1 mph - N/A   Clear
3:10 AM 6.8 °F -5.9 °F -2.2 °F 67% 30.63 in 10.0 mi North 8.1 mph - N/A   Clear
3:30 AM 6.8 °F -4.8 °F -2.2 °F 67% 30.62 in 10.0 mi North 6.9 mph - N/A   Clear
3:50 AM 6.8 °F -4.8 °F -2.2 °F 67% 30.62 in 10.0 mi North 6.9 mph - N/A   Clear
4:10 AM 6.8 °F -5.9 °F -2.2 °F 67% 30.62 in 10.0 mi North 8.1 mph - N/A   Clear
4:30 AM 6.8 °F -5.9 °F -2.2 °F 67% 30.62 in 10.0 mi North 8.1 mph - N/A   Clear
4:50 AM 6.8 °F -5.9 °F -2.2 °F 67% 30.62 in 10.0 mi North 8.1 mph - N/A   Clear
5:10 AM 6.8 °F -5.9 °F -2.2 °F 67% 30.61 in 10.0 mi NNE 8.1 mph - N/A   Clear
5:30 AM 6.8 °F -7.8 °F -2.2 °F 67% 30.61 in 10.0 mi NNE 10.4 mph - N/A   Clear
5:50 AM 6.8 °F -9.3 °F -2.2 °F 67% 30.60 in 10.0 mi NNE 12.7 mph - N/A   Clear
6:10 AM 6.8 °F -7.8 °F -2.2 °F 67% 30.60 in 10.0 mi NNE 10.4 mph - N/A   Clear
6:30 AM 6.8 °F -6.9 °F -2.2 °F 67% 30.61 in 10.0 mi NNE 9.2 mph - N/A   Clear
6:50 AM 6.8 °F -5.9 °F -2.2 °F 67% 30.61 in 10.0 mi NE 8.1 mph - N/A   Clear
7:10 AM 6.8 °F -6.9 °F -2.2 °F 67% 30.61 in 10.0 mi NE 9.2 mph - N/A   Clear
7:30 AM 6.8 °F -5.9 °F -2.2 °F 67% 30.60 in 10.0 mi NE 8.1 mph - N/A   Clear
7:50 AM 5.0 °F -8.1 °F -2.2 °F 72% 30.62 in 10.0 mi NNE 8.1 mph - N/A   Clear
8:10 AM 6.8 °F -4.8 °F -2.2 °F 67% 30.62 in 10.0 mi NNE 6.9 mph - N/A   Clear
8:30 AM 6.8 °F -5.9 °F -2.2 °F 67% 30.63 in 10.0 mi NNE 8.1 mph - N/A   Clear
8:50 AM 8.6 °F -3.7 °F -2.2 °F 62% 30.63 in 10.0 mi NE 8.1 mph - N/A   Clear
9:10 AM 8.6 °F -4.7 °F -2.2 °F 62% 30.62 in 10.0 mi ENE 9.2 mph - N/A   Clear
9:30 AM 10.4 °F -2.4 °F -0.4 °F 62% 30.63 in 10.0 mi NE 9.2 mph - N/A   Clear
9:50 AM 10.4 °F -2.4 °F -0.4 °F 62% 30.63 in 10.0 mi ENE 9.2 mph - N/A   Clear
10:10 AM 10.4 °F 0.8 °F -0.4 °F 62% 30.63 in 10.0 mi East 5.8 mph - N/A   Clear
10:30 AM 14.0 °F 3.9 °F -0.4 °F 53% 30.60 in 10.0 mi East 6.9 mph - N/A   Clear
10:50 AM 14.0 °F 2.0 °F -0.4 °F 53% 30.60 in 10.0 mi East 9.2 mph - N/A   Clear
11:10 AM 14.0 °F 2.0 °F -0.4 °F 53% 30.59 in 10.0 mi ESE 9.2 mph - N/A   Clear
11:30 AM 15.8 °F 4.2 °F -0.4 °F 49% 30.57 in 10.0 mi ENE 9.2 mph 16.1 mph N/A   Mostly Cloudy
11:50 AM 15.8 °F 2.7 °F -0.4 °F 49% 30.55 in 10.0 mi East 11.5 mph - N/A   Overcast
12:10 PM 15.8 °F 6.1 °F -0.4 °F 49% 30.54 in 10.0 mi ESE 6.9 mph - N/A   Overcast
12:30 PM 17.6 °F 6.4 °F -0.4 °F 45% 30.52 in 10.0 mi East 9.2 mph - N/A   Mostly Cloudy
12:50 PM 17.6 °F 7.3 °F -0.4 °F 45% 30.48 in 10.0 mi East 8.1 mph 16.1 mph N/A   Scattered Clouds
1:10 PM 17.6 °F 5.0 °F -0.4 °F 45% 30.45 in 10.0 mi East 11.5 mph 19.6 mph N/A   Mostly Cloudy
1:30 PM 19.4 °F 7.2 °F -0.4 °F 42% 30.44 in 10.0 mi East 11.5 mph 16.1 mph N/A   Scattered Clouds
1:50 PM 17.6 °F 6.4 °F -0.4 °F 45% 30.43 in 9.0 mi East 9.2 mph - N/A   Mostly Cloudy
2:10 PM 19.4 °F 7.2 °F -0.4 °F 42% 30.42 in 10.0 mi East 11.5 mph - N/A   Overcast
2:30 PM 19.4 °F 9.5 °F -0.4 °F 42% 30.43 in 10.0 mi ESE 8.1 mph - N/A   Overcast
2:50 PM 19.4 °F 11.5 °F -0.4 °F 42% 30.43 in 10.0 mi East 5.8 mph - N/A   Overcast
3:10 PM 19.4 °F 12.8 °F -0.4 °F 42% 30.42 in 10.0 mi ESE 4.6 mph - N/A   Overcast
3:30 PM 19.4 °F 14.3 °F -0.4 °F 42% 30.41 in 10.0 mi ESE 3.5 mph - N/A   Overcast
3:50 PM 19.4 °F 12.8 °F -0.4 °F 42% 30.41 in 10.0 mi East 4.6 mph - N/A   Overcast
4:10 PM 21.2 °F 12.6 °F -0.4 °F 39% 30.40 in 10.0 mi ESE 6.9 mph - N/A   Overcast
4:30 PM 19.4 °F 10.4 °F -0.4 °F 42% 30.40 in 10.0 mi ESE 6.9 mph - N/A   Overcast
4:50 PM 19.4 °F 9.5 °F -0.4 °F 42% 30.38 in 10.0 mi East 8.1 mph - N/A   Overcast
5:10 PM 19.4 °F 8.6 °F -0.4 °F 42% 30.36 in 10.0 mi East 9.2 mph - N/A   Overcast
5:30 PM 19.4 °F 8.6 °F -0.4 °F 42% 30.36 in 10.0 mi East 9.2 mph - N/A   Overcast
5:50 PM 19.4 °F 7.9 °F -0.4 °F 42% 30.35 in 10.0 mi ESE 10.4 mph - N/A   Overcast
6:10 PM 19.4 °F 7.9 °F -0.4 °F 42% 30.35 in 10.0 mi ESE 10.4 mph - N/A   Overcast
6:30 PM 19.4 °F 9.5 °F -0.4 °F 42% 30.34 in 10.0 mi ESE 8.1 mph - N/A   Overcast
6:50 PM 19.4 °F 7.2 °F -0.4 °F 42% 30.33 in 10.0 mi SE 11.5 mph - N/A   Overcast
7:10 PM 19.4 °F 7.2 °F -0.4 °F 42% 30.32 in 10.0 mi SE 11.5 mph - N/A   Overcast
7:30 PM 19.4 °F 6.6 °F -0.4 °F 42% 30.31 in 10.0 mi SE 12.7 mph - N/A   Overcast
7:50 PM 19.4 °F 6.6 °F -0.4 °F 42% 30.31 in 10.0 mi SE 12.7 mph - N/A   Overcast
8:10 PM 19.4 °F 7.9 °F -0.4 °F 42% 30.31 in 10.0 mi SE 10.4 mph - N/A   Overcast
8:30 PM 19.4 °F 7.2 °F 1.4 °F 46% 30.29 in 10.0 mi SE 11.5 mph - N/A   Overcast
8:50 PM 19.4 °F 7.9 °F 1.4 °F 46% 30.28 in 10.0 mi SE 10.4 mph - N/A   Overcast
9:10 PM 19.4 °F 7.2 °F 1.4 °F 46% 30.28 in 10.0 mi SE 11.5 mph - N/A   Overcast
9:30 PM 19.4 °F 7.2 °F 3.2 °F 49% 30.27 in 10.0 mi SE 11.5 mph - N/A   Overcast
9:50 PM 19.4 °F 7.9 °F 3.2 °F 49% 30.27 in 10.0 mi SE 10.4 mph - N/A   Overcast
10:10 PM 19.4 °F 7.9 °F 3.2 °F 49% 30.27 in 10.0 mi ESE 10.4 mph - N/A   Overcast
10:30 PM 19.4 °F 9.5 °F 5.0 °F 54% 30.27 in 10.0 mi SE 8.1 mph - N/A   Overcast
10:50 PM 19.4 °F 7.2 °F 5.0 °F 54% 30.26 in 10.0 mi SE 11.5 mph - N/A   Overcast
11:10 PM 19.4 °F 7.2 °F 5.0 °F 54% 30.25 in 10.0 mi SE 11.5 mph - N/A   Overcast
11:30 PM 19.4 °F 7.9 °F 5.0 °F 54% 30.24 in 10.0 mi SE 10.4 mph - N/A   Overcast
11:50 PM 19.4 °F 7.2 °F 6.8 °F 58% 30.23 in 10.0 mi SE 11.5 mph - N/A   Overcast